timestamp,wind_dir_avg,wind_spd_avg,wind_spd_max_dir,wind_spd_gust,battery_voltage,lat,long
2023-11-27 00:04:01+00:00,238.0,7.91,235.0,9.17,12.33,47.59359,-54.27349
2023-11-27 00:14:01+00:00,232.0,6.21,232.0,7.23,12.33,47.59359,-54.27349
2023-11-27 00:24:01+00:00,239.0,6.54,245.0,7.51,12.33,47.59359,-54.27349
2023-11-27 00:34:01+00:00,233.0,5.78,234.0,6.9,12.33,47.59359,-54.27349
2023-11-27 00:44:01+00:00,245.0,6.51,244.0,7.2,12.33,47.59359,-54.27349
2023-11-27 00:54:01+00:00,249.0,6.38,247.0,7.06,12.33,47.59359,-54.27349
2023-11-27 01:04:01+00:00,246.0,6.05,241.0,6.5,12.33,47.59359,-54.27349
2023-11-27 01:14:01+00:00,250.0,6.29,245.0,7.04,12.25,47.59359,-54.27349
2023-11-27 01:24:01+00:00,248.0,5.41,250.0,6.08,12.25,47.59359,-54.27349
2023-11-27 01:34:01+00:00,243.0,4.55,250.0,5.45,12.25,47.59359,-54.27349
2023-11-27 01:44:01+00:00,236.0,5.07,229.0,5.89,12.25,47.59359,-54.27349
2023-11-27 01:54:01+00:00,242.0,5.15,236.0,5.92,12.25,47.59359,-54.27349
2023-11-27 02:04:01+00:00,253.0,6.74,256.0,7.55,12.25,47.59359,-54.27349
2023-11-27 02:14:01+00:00,249.0,5.97,247.0,6.58,12.25,47.59359,-54.27349
2023-11-27 02:24:01+00:00,245.0,6.04,241.0,6.54,12.25,47.59359,-54.27349
2023-11-27 02:34:01+00:00,245.0,6.43,247.0,7.5,12.25,47.59359,-54.27349
2023-11-27 02:44:01+00:00,249.0,7.46,245.0,8.07,12.25,47.59359,-54.27349
2023-11-27 02:54:01+00:00,248.0,7.14,243.0,8.59,12.25,47.59359,-54.27349
2023-11-27 03:04:01+00:00,253.0,6.79,255.0,7.28,12.25,47.59359,-54.27349
2023-11-27 03:14:00+00:00,236.0,6.24,234.0,7.96,12.17,47.59359,-54.27349
2023-11-27 03:24:00+00:00,234.0,5.36,240.0,6.68,12.17,47.59359,-54.27349
2023-11-27 03:34:00+00:00,233.0,4.27,239.0,5.2,12.17,47.59359,-54.27349
2023-11-27 03:44:00+00:00,227.0,4.81,226.0,5.84,12.17,47.59359,-54.27349
2023-11-27 03:54:00+00:00,239.0,4.32,240.0,5.81,12.17,47.59359,-54.27349
2023-11-27 04:04:00+00:00,256.0,4.9,256.0,5.45,12.17,47.59359,-54.27349
2023-11-27 04:14:00+00:00,250.0,3.83,248.0,4.87,12.17,47.59359,-54.27349
2023-11-27 04:24:00+00:00,237.0,3.46,239.0,4.11,12.17,47.59359,-54.27349
2023-11-27 04:34:00+00:00,295.0,2.6,297.0,3.53,12.17,47.59359,-54.27349
2023-11-27 04:44:00+00:00,282.0,3.86,285.0,4.77,12.17,47.59359,-54.27349
2023-11-27 04:54:00+00:00,292.0,3.46,293.0,4.2,12.17,47.59359,-54.27349
2023-11-27 05:04:00+00:00,254.0,3.21,251.0,3.65,12.17,47.59359,-54.27349
2023-11-27 05:14:01+00:00,241.0,4.59,238.0,5.54,12.17,47.59359,-54.27349
2023-11-27 05:24:01+00:00,297.0,3.41,307.0,4.51,12.17,47.59359,-54.27349
2023-11-27 05:34:01+00:00,288.0,3.81,285.0,4.87,12.17,47.59359,-54.27349
2023-11-27 05:44:01+00:00,315.0,3.06,307.0,4.29,12.17,47.59359,-54.27349
2023-11-27 05:54:01+00:00,243.0,3.86,236.0,4.72,12.17,47.59359,-54.27349
2023-11-27 06:04:01+00:00,242.0,4.15,244.0,5.13,12.17,47.59359,-54.27349
2023-11-27 06:14:00+00:00,268.0,4.23,277.0,4.8,12.17,47.59359,-54.27349
2023-11-27 06:24:00+00:00,299.0,3.3,290.0,3.82,12.17,47.59359,-54.27349
2023-11-27 06:34:00+00:00,295.0,3.48,300.0,5.06,12.17,47.59359,-54.27349
2023-11-27 06:44:00+00:00,304.0,3.98,301.0,4.82,12.17,47.59359,-54.27349
2023-11-27 06:54:00+00:00,281.0,2.6,283.0,3.29,12.17,47.59359,-54.27349
2023-11-27 07:04:00+00:00,300.0,3.26,299.0,3.52,12.17,47.59359,-54.27349
2023-11-27 07:14:00+00:00,296.0,3.31,304.0,4.05,12.09,47.59359,-54.27349
2023-11-27 07:24:00+00:00,296.0,2.99,299.0,3.71,12.09,47.59359,-54.27349
2023-11-27 07:34:00+00:00,298.0,2.09,288.0,2.86,12.09,47.59359,-54.27349
2023-11-27 07:44:00+00:00,318.0,1.63,320.0,1.96,12.09,47.59359,-54.27349
2023-11-27 07:54:00+00:00,333.0,4.29,330.0,4.69,12.09,47.59359,-54.27349
2023-11-27 08:04:00+00:00,340.0,2.64,341.0,3.25,12.09,47.59359,-54.27349
2023-11-27 08:14:01+00:00,353.0,1.62,355.0,2.09,12.09,47.59359,-54.27349
2023-11-27 08:24:01+00:00,348.0,2.21,350.0,2.87,12.09,47.59359,-54.27349
2023-11-27 08:34:01+00:00,347.0,2.24,352.0,2.44,12.09,47.59359,-54.27349
2023-11-27 08:44:01+00:00,0.0,1.52,1.0,2.11,12.09,47.59359,-54.27349
2023-11-27 08:54:01+00:00,3.0,1.64,0.0,2.32,12.09,47.59359,-54.27349
2023-11-27 09:04:01+00:00,346.0,2.27,346.0,2.79,12.09,47.59359,-54.27349
2023-11-27 09:14:00+00:00,345.0,1.87,357.0,2.39,12.09,47.59359,-54.27349
2023-11-27 09:24:00+00:00,358.0,2.1,357.0,2.85,12.09,47.59359,-54.27349
2023-11-27 09:34:00+00:00,14.0,1.17,30.0,1.46,12.09,47.59359,-54.27349
2023-11-27 09:44:00+00:00,353.0,1.37,346.0,1.74,12.09,47.59359,-54.27349
2023-11-27 09:54:00+00:00,358.0,0.56,355.0,0.89,12.09,47.59359,-54.27349
2023-11-27 10:04:00+00:00,348.0,0.5,343.0,0.69,12.09,47.59359,-54.27349
2023-11-27 10:14:01+00:00,107.0,0.62,93.0,0.77,12.09,47.59359,-54.27349
2023-11-27 10:24:01+00:00,187.0,0.29,185.0,0.77,12.09,47.59359,-54.27349
2023-11-27 10:34:01+00:00,27.0,0.41,16.0,0.78,12.09,47.59359,-54.27349
2023-11-27 10:44:01+00:00,31.0,0.72,21.0,0.99,12.09,47.59359,-54.27349
2023-11-27 10:54:01+00:00,356.0,0.59,342.0,0.84,12.09,47.59359,-54.27349
2023-11-27 11:04:01+00:00,351.0,0.68,353.0,1.0,12.09,47.59359,-54.27349
2023-11-27 11:14:00+00:00,358.0,2.21,0.0,2.71,12.09,47.59359,-54.27349
2023-11-27 11:24:00+00:00,359.0,1.57,349.0,1.88,12.09,47.59359,-54.27349
2023-11-27 11:34:00+00:00,351.0,2.69,358.0,3.89,12.09,47.59359,-54.27349
2023-11-27 11:44:00+00:00,348.0,1.61,338.0,2.31,12.09,47.59359,-54.27349
2023-11-27 11:54:00+00:00,10.0,1.68,8.0,2.09,12.09,47.59359,-54.27349
2023-11-27 12:04:00+00:00,7.0,1.77,2.0,2.32,12.09,47.59359,-54.27349
2023-11-27 12:14:00+00:00,20.0,1.42,5.0,1.78,12.17,47.59359,-54.27349
2023-11-27 12:24:00+00:00,67.0,2.7,81.0,3.18,12.17,47.59359,-54.27349
2023-11-27 12:34:00+00:00,72.0,2.8,71.0,3.4,12.17,47.59359,-54.27349
2023-11-27 12:44:00+00:00,70.0,2.95,72.0,3.8,12.17,47.59359,-54.27349
2023-11-27 12:54:00+00:00,90.0,2.47,111.0,3.35,12.17,47.59359,-54.27349
2023-11-27 13:04:00+00:00,113.0,1.61,118.0,2.32,12.17,47.59359,-54.27349
2023-11-27 13:14:00+00:00,142.0,1.27,149.0,1.95,13.53,47.59359,-54.27349
2023-11-27 13:24:00+00:00,135.0,1.64,145.0,2.51,13.53,47.59359,-54.27349
2023-11-27 13:34:00+00:00,149.0,3.39,152.0,3.98,13.53,47.59359,-54.27349
2023-11-27 13:44:00+00:00,173.0,2.81,178.0,3.35,13.53,47.59359,-54.27349
2023-11-27 13:54:00+00:00,144.0,2.28,128.0,2.99,13.53,47.59359,-54.27349
2023-11-27 14:04:00+00:00,159.0,0.9,160.0,1.3,13.53,47.59359,-54.27349
2023-11-27 14:14:00+00:00,226.0,2.63,223.0,3.38,13.05,47.59359,-54.27349
2023-11-27 14:24:00+00:00,325.0,0.15,331.0,0.41,13.05,47.59359,-54.27349
2023-11-27 14:34:00+00:00,8.0,0.34,5.0,0.66,13.05,47.59359,-54.27349
2023-11-27 14:44:00+00:00,231.0,0.51,220.0,0.8,13.05,47.59359,-54.27349
2023-11-27 14:54:00+00:00,31.0,1.38,38.0,1.72,13.05,47.59359,-54.27349
2023-11-27 15:04:00+00:00,78.0,1.25,70.0,1.62,13.05,47.59359,-54.27349
2023-11-27 15:14:00+00:00,341.0,0.47,328.0,1.31,13.68,47.59359,-54.27349
2023-11-27 15:24:00+00:00,206.0,1.1,199.0,3.49,13.68,47.59359,-54.27349
2023-11-27 15:34:00+00:00,225.0,2.46,229.0,3.13,13.68,47.59359,-54.27349
2023-11-27 15:44:00+00:00,335.0,4.86,341.0,5.5,13.68,47.59359,-54.27349
2023-11-27 15:54:00+00:00,30.0,1.3,13.0,3.32,13.68,47.59359,-54.27349
2023-11-27 16:04:00+00:00,62.0,0.23,66.0,1.08,13.68,47.59359,-54.27349
2023-11-27 16:14:01+00:00,191.0,1.17,184.0,2.09,13.6,47.59359,-54.27349
2023-11-27 16:24:01+00:00,185.0,5.05,186.0,6.31,13.6,47.59359,-54.27349
2023-11-27 16:34:01+00:00,171.0,5.49,172.0,6.0,13.6,47.59359,-54.27349
2023-11-27 16:44:01+00:00,169.0,4.67,161.0,5.08,13.6,47.59359,-54.27349
2023-11-27 16:54:01+00:00,163.0,3.97,164.0,4.83,13.6,47.59359,-54.27349
2023-11-27 17:04:01+00:00,162.0,2.3,166.0,2.73,13.6,47.59359,-54.27349
2023-11-27 17:14:01+00:00,158.0,3.85,149.0,4.96,13.44,47.59359,-54.27349
2023-11-27 17:24:01+00:00,146.0,6.25,143.0,6.67,13.44,47.59359,-54.27349
2023-11-27 17:34:01+00:00,149.0,5.63,136.0,6.18,13.44,47.59359,-54.27349
2023-11-27 17:44:01+00:00,159.0,4.85,161.0,5.16,13.44,47.59359,-54.27349
2023-11-27 17:54:01+00:00,161.0,6.01,163.0,6.7,13.44,47.59359,-54.27349
2023-11-27 18:04:01+00:00,161.0,6.77,161.0,7.51,13.44,47.59359,-54.27349
2023-11-27 18:14:00+00:00,159.0,6.34,160.0,7.33,13.44,47.59359,-54.27349
2023-11-27 18:24:00+00:00,162.0,6.01,162.0,7.7,13.44,47.59359,-54.27349
2023-11-27 18:34:00+00:00,158.0,5.94,160.0,7.02,13.44,47.59359,-54.27349
2023-11-27 18:44:00+00:00,151.0,5.9,154.0,6.7,13.44,47.59359,-54.27349
2023-11-27 18:54:00+00:00,164.0,6.09,171.0,6.93,13.44,47.59359,-54.27349
2023-11-27 19:04:00+00:00,152.0,5.27,146.0,6.74,13.44,47.59359,-54.27349
2023-11-27 19:14:01+00:00,148.0,3.71,139.0,4.45,13.05,47.59359,-54.27349
2023-11-27 19:24:01+00:00,165.0,5.55,166.0,6.15,13.05,47.59359,-54.27349
2023-11-27 19:34:01+00:00,152.0,6.99,155.0,7.69,13.05,47.59359,-54.27349
2023-11-27 19:44:01+00:00,151.0,6.38,157.0,7.53,13.05,47.59359,-54.27349
2023-11-27 19:54:01+00:00,149.0,6.73,147.0,7.48,13.05,47.59359,-54.27349
2023-11-27 20:04:01+00:00,131.0,5.85,134.0,7.01,13.05,47.59359,-54.27349
2023-11-27 20:14:00+00:00,144.0,6.32,151.0,7.44,12.57,47.59359,-54.27349
2023-11-27 20:24:00+00:00,142.0,7.29,147.0,8.67,12.57,47.59359,-54.27349
2023-11-27 20:34:00+00:00,127.0,6.91,114.0,8.7,12.57,47.59359,-54.27349
2023-11-27 20:44:00+00:00,137.0,7.44,142.0,8.5,12.57,47.59359,-54.27349
2023-11-27 20:54:00+00:00,131.0,7.73,138.0,8.7,12.57,47.59359,-54.27349
2023-11-27 21:04:00+00:00,134.0,7.05,127.0,9.01,12.57,47.59359,-54.27349
2023-11-27 21:14:01+00:00,151.0,6.59,155.0,7.76,12.49,47.59359,-54.27349
2023-11-27 21:24:01+00:00,151.0,7.18,151.0,8.05,12.49,47.59359,-54.27349
2023-11-27 21:34:01+00:00,147.0,7.65,148.0,9.04,12.49,47.59359,-54.27349
2023-11-27 21:44:01+00:00,168.0,9.06,167.0,10.13,12.49,47.59359,-54.27349
2023-11-27 21:54:01+00:00,154.0,9.83,154.0,11.0,12.49,47.59359,-54.27349
2023-11-27 22:04:01+00:00,144.0,9.18,139.0,10.37,12.49,47.59359,-54.27349
2023-11-27 22:14:01+00:00,156.0,9.58,155.0,10.57,12.41,47.59359,-54.27349
2023-11-27 22:24:01+00:00,153.0,8.73,147.0,11.09,12.41,47.59359,-54.27349
2023-11-27 22:34:01+00:00,147.0,8.78,145.0,9.97,12.41,47.59359,-54.27349
2023-11-27 22:44:01+00:00,139.0,9.65,135.0,11.72,12.41,47.59359,-54.27349
2023-11-27 22:54:01+00:00,139.0,10.37,135.0,12.95,12.41,47.59359,-54.27349
2023-11-27 23:04:01+00:00,160.0,9.04,167.0,10.9,12.41,47.59359,-54.27349
2023-11-27 23:14:01+00:00,134.0,9.29,134.0,11.25,12.41,47.59359,-54.27349
2023-11-27 23:24:01+00:00,139.0,11.38,138.0,13.83,12.41,47.59359,-54.27349
2023-11-27 23:34:01+00:00,132.0,9.13,129.0,10.68,12.41,47.59359,-54.27349
2023-11-27 23:44:01+00:00,129.0,9.53,132.0,11.48,12.41,47.59359,-54.27349
2023-11-27 23:54:01+00:00,147.0,8.96,159.0,10.88,12.41,47.59359,-54.27349
